WetterOnline ( https://www.wetteronline.at )

Wetter aktuell Leck

Aktuelles Wetter: Leck (17m)

6-stündlich | Neueste Meldungen
Ortszeit Temperatur Wetter
Fr, 02.12. 19:00 4.1° C bewölkt
Fr, 02.12. 13:00 4.3° C Sprühregen
Fr, 02.12. 7:00 3.5° C bedeckt
Fr, 02.12. 1:00 4.2° C bedeckt
Do, 01.12. 19:00 4.4° C bedeckt
Do, 01.12. 13:00 5.0° C bewölkt
Do, 01.12. 7:00 4.2° C bedeckt
Do, 01.12. 1:00 4.4° C Sprühregen
Ortszeit Temperatur Wetter
Fr, 02.12. 22:30 4.7° C bewölkt
Fr, 02.12. 22:20 4.7° C bewölkt
Fr, 02.12. 22:10 4.7° C bewölkt
Fr, 02.12. 22:00 4.7° C bedeckt
Fr, 02.12. 21:50 4.7° C bedeckt
Fr, 02.12. 21:40 4.6° C bedeckt
Fr, 02.12. 21:30 4.6° C bedeckt
Fr, 02.12. 21:00 4.5° C bedeckt
Fr, 02.12. 20:30 4.6° C bedeckt
Fr, 02.12. 20:00 4.5° C bedeckt
Fr, 02.12. 19:30 4.3° C bedeckt
Ortszeit Relative Feuchte Sichtweite
Fr, 02.12. 19:00 87% 30 km
Fr, 02.12. 13:00 88% 23 km
Fr, 02.12. 7:00 93% 11 km
Fr, 02.12. 1:00 91% 7 km
Do, 01.12. 19:00 92% 7 km
Do, 01.12. 13:00 92% 8 km
Do, 01.12. 7:00 93% 8 km
Do, 01.12. 1:00 95% 2.8 km
Ortszeit Relative Feuchte Sichtweite
Fr, 02.12. 22:30 84% 30 km
Fr, 02.12. 22:20 84% -
Fr, 02.12. 22:10 84% -
Fr, 02.12. 22:00 85% 30 km
Fr, 02.12. 21:50 85% -
Fr, 02.12. 21:40 85% -
Fr, 02.12. 21:30 84% 30 km
Fr, 02.12. 21:00 86% 30 km
Fr, 02.12. 20:30 85% 30 km
Fr, 02.12. 20:00 86% 30 km
Fr, 02.12. 19:30 87% 30 km
Ortszeit Niederschlagsmenge Niederschlagsart
Fr, 02.12. 19:00 1 l/m2 in 12 Std. Regen
Fr, 02.12. 13:00 0.6 l/m2 in 6 Std. Regen
Fr, 02.12. 7:00 0.1 l/m2 in 12 Std. Regen
Fr, 02.12. 1:00 0.0 l/m2 in 6 Std. -
Do, 01.12. 19:00 0.1 l/m2 in 12 Std. Sprühregen
Do, 01.12. 13:00 0.0 l/m2 in 6 Std. -
Do, 01.12. 7:00 0.2 l/m2 in 12 Std. Regen
Do, 01.12. 1:00 0.1 l/m2 in 6 Std. Sprühregen
Ortszeit Niederschlagsmenge Niederschlagsart
Fr, 02.12. 22:30 <0.05 l/m2 in 30 Min Schneeregen
Fr, 02.12. 22:20 keine Meldung -
Fr, 02.12. 22:10 keine Meldung -
Fr, 02.12. 22:00 0.0 l/m2 in 1 Std. -
Fr, 02.12. 21:50 keine Meldung -
Fr, 02.12. 21:40 keine Meldung -
Fr, 02.12. 21:30 0.0 l/m2 in 30 Min -
Fr, 02.12. 21:00 0.0 l/m2 in 1 Std. -
Fr, 02.12. 20:30 0.0 l/m2 in 30 Min -
Fr, 02.12. 20:00 0.0 l/m2 in 1 Std. -
Fr, 02.12. 19:30 0.0 l/m2 in 30 Min -
Ortszeit Stärke Spitze Richtung
km/h Bft. km/h Grad Sektor
Fr, 02.12. 19:00 18 3 40 40° NO
Fr, 02.12. 13:00 20 4 39 70° O
Fr, 02.12. 7:00 7 2 22 40° NO
Fr, 02.12. 1:00 7 2 22 60° NO
Do, 01.12. 19:00 9 2 19 40° NO
Do, 01.12. 13:00 9 2 17 50° NO
Do, 01.12. 7:00 11 2 25 50° NO
Do, 01.12. 1:00 14 3 22 40° NO
Ortszeit Stärke Spitze Richtung
km/h Bft. km/h Grad Sektor
Fr, 02.12. 22:30 22 4 36 50° NO
Fr, 02.12. 22:20 22 4 - 50° NO
Fr, 02.12. 22:10 22 4 - 50° NO
Fr, 02.12. 22:00 22 4 32 40° NO
Fr, 02.12. 21:50 22 4 - 40° NO
Fr, 02.12. 21:40 22 4 - 40° NO
Fr, 02.12. 21:30 24 4 33 50° NO
Fr, 02.12. 21:00 18 3 29 50° NO
Fr, 02.12. 20:30 20 4 28 50° NO
Fr, 02.12. 20:00 18 3 25 60° NO
Fr, 02.12. 19:30 17 3 26 50° NO
Ortszeit Untergrenze Bedeckung Gattung
total tief tief mittel hoch
Fr, 02.12. 19:00 690 m 7/8 7/8 - - -
Fr, 02.12. 13:00 870 m 6/8 6/8 - - -
Fr, 02.12. 7:00 900 m 8/8 8/8 - - -
Fr, 02.12. 1:00 330 m 8/8 8/8 - - -
Do, 01.12. 19:00 570 m 8/8 8/8 - - -
Do, 01.12. 13:00 270 m 7/8 7/8 - - -
Do, 01.12. 7:00 270 m 8/8 8/8 - - -
Do, 01.12. 1:00 210 m 8/8 8/8 - - -
Ortszeit Bedeckungsgrad in Achtel und Wolkenuntergrenze
Fr, 02.12. 22:30 6(480m) 7(1050m)
Fr, 02.12. 22:20 6(480m) 7(1050m)
Fr, 02.12. 22:10 7
Fr, 02.12. 22:00 2(510m) 7(1260m) 8(1470m)
Fr, 02.12. 21:50 2(510m) 7(1260m) 8(1470m)
Fr, 02.12. 21:40 8
Fr, 02.12. 21:30 7(510m) 8(1260m)
Fr, 02.12. 21:00 8(540m)
Fr, 02.12. 20:30 6(570m) 8(690m)
Fr, 02.12. 20:00 8(570m)
Fr, 02.12. 19:30 7(600m) 8(1500m)
Ortszeit Luftdruck NN (hPa) Tendenz (hPa in 3 Std.)
Fr, 02.12. 19:00 1030 + 0,2
Fr, 02.12. 13:00 1030 0,0
Fr, 02.12. 7:00 1029 - 0,2
Fr, 02.12. 1:00 1030 - 0,5
Do, 01.12. 19:00 1030 + 0,3
Do, 01.12. 13:00 1030 - 0,3
Do, 01.12. 7:00 1030 + 0,5
Do, 01.12. 1:00 1029 + 0,1
Ortszeit Luftdruck NN (hPa) Tendenz (hPa in 3 Std.)
Fr, 02.12. 22:30 1030 - 0,5
Fr, 02.12. 22:20 1030 keine Meldung
Fr, 02.12. 22:10 1030 keine Meldung
Fr, 02.12. 22:00 1030 - 0,3
Fr, 02.12. 21:50 1030 keine Meldung
Fr, 02.12. 21:40 1030 keine Meldung
Fr, 02.12. 21:30 1030 - 0,2
Fr, 02.12. 21:00 1030 - 0,2
Fr, 02.12. 20:30 1030 0,0
Fr, 02.12. 20:00 1030 + 0,2
Fr, 02.12. 19:30 1030 + 0,3
Ortszeit Schneehöhe (cm)
Fr, 02.12. 19:00 0
Fr, 02.12. 13:00 0
Fr, 02.12. 7:00 0
Fr, 02.12. 1:00 0
Do, 01.12. 19:00 0
Do, 01.12. 13:00 0
Do, 01.12. 7:00 0
Do, 01.12. 1:00 0
Ortszeit Schneehöhe (cm)
Fr, 02.12. 22:30 0
Fr, 02.12. 22:20 0
Fr, 02.12. 22:10 0
Fr, 02.12. 22:00 0
Fr, 02.12. 21:50 0
Fr, 02.12. 21:40 0
Fr, 02.12. 21:30 0
Fr, 02.12. 21:00 0
Fr, 02.12. 20:30 0
Fr, 02.12. 20:00 0
Fr, 02.12. 19:30 0
Link zu dieser Seite / Seite empfehlen

Das Wetter in ...